owner,sensor,date,latitude,longitude,vertical_datum,wind_speed,wind_to_direction,wind_speed_of_gust,qcFlag 
TCOON,ioos:station:TCOON:003:1,2007-12-01T00:00:00Z,26.8015,-97.4706,0.0,6.7,149.0,7.9,'11111222,11111222,11111222' 
TCOON,ioos:station:TCOON:003:1,2007-12-01T02:00:00Z,26.8015,-97.4706,0.0,5.7,142.0,6.8,'11111222,11111222,11111222' 
TCOON,ioos:station:TCOON:003:1,2007-12-01T03:00:00Z,26.8015,-97.4706,0.0,4.1,137.0,4.8,'11111222,11111222,11111222' 
TCOON,ioos:station:TCOON:003:1,2007-12-01T04:00:00Z,26.8015,-97.4706,0.0,4.3,148.0,5.0,'11111222,11111222,11111222' 
TCOON,ioos:station:TCOON:003:1,2007-12-01T05:00:00Z,26.8015,-97.4706,0.0,6.4,132.0,7.2,'11111222,11111222,11111222' 
TCOON,ioos:station:TCOON:003:1,2007-12-01T06:00:00Z,26.8015,-97.4706,0.0,4.9,140.0,5.5,'11111222,11111222,11111222' 
TCOON,ioos:station:TCOON:003:1,2007-12-01T07:00:00Z,26.8015,-97.4706,0.0,5.6,143.0,6.5,'11111222,11111222,11111222' 
TCOON,ioos:station:TCOON:003:1,2007-12-01T08:00:00Z,26.8015,-97.4706,0.0,6.1,144.0,7.1,'11111222,11111222,11111222' 
TCOON,ioos:station:TCOON:003:1,2007-12-01T09:00:00Z,26.8015,-97.4706,0.0,5.8,152.0,6.6,'11111222,11111222,11111222' 
TCOON,ioos:station:TCOON:003:1,2007-12-01T10:00:00Z,26.8015,-97.4706,0.0,4.7,155.0,5.2,'11111222,11111222,11111222' 
TCOON,ioos:station:TCOON:003:1,2007-12-01T11:00:00Z,26.8015,-97.4706,0.0,4.1,154.0,4.8,'11111222,11111222,11111222' 
TCOON,ioos:station:TCOON:003:1,2007-12-01T12:00:00Z,26.8015,-97.4706,0.0,5.1,138.0,6.2,'11111222,11111222,11111222' 
TCOON,ioos:station:TCOON:003:1,2007-12-01T13:00:00Z,26.8015,-97.4706,0.0,5.5,150.0,6.4,'11111222,11111222,11111222' 
TCOON,ioos:station:TCOON:003:1,2007-12-01T14:00:00Z,26.8015,-97.4706,0.0,6.8,164.0,7.7,'11111222,11111222,11111222' 
TCOON,ioos:station:TCOON:003:1,2007-12-01T15:00:00Z,26.8015,-97.4706,0.0,6.7,179.0,7.6,'11111222,11111222,11111222' 
TCOON,ioos:station:TCOON:003:1,2007-12-01T16:00:00Z,26.8015,-97.4706,0.0,8.7,167.0,10.0,'11111222,11111222,11111222' 
TCOON,ioos:station:TCOON:003:1,2007-12-01T17:00:00Z,26.8015,-97.4706,0.0,11.2,169.0,13.1,'11111222,11111222,11111222' 
TCOON,ioos:station:TCOON:003:1,2007-12-01T18:00:00Z,26.8015,-97.4706,0.0,11.7,169.0,13.4,'11111222,11111222,11111222' 
TCOON,ioos:station:TCOON:003:1,2007-12-01T19:00:00Z,26.8015,-97.4706,0.0,11.4,167.0,13.7,'11111222,11111222,11111222' 
TCOON,ioos:station:TCOON:003:1,2007-12-01T20:00:00Z,26.8015,-97.4706,0.0,10.9,169.0,13.0,'11111222,11111222,11111222' 
TCOON,ioos:station:TCOON:003:1,2007-12-01T21:00:00Z,26.8015,-97.4706,0.0,11.3,169.0,13.2,'11111222,11111222,11111222' 
TCOON,ioos:station:TCOON:003:1,2007-12-01T22:00:00Z,26.8015,-97.4706,0.0,12.1,168.0,14.1,'11111222,11111222,11111222' 
TCOON,ioos:station:TCOON:003:1,2007-12-01T23:00:00Z,26.8015,-97.4706,0.0,9.8,172.0,11.2,'11111222,11111222,11111222' 
TCOON,ioos:station:TCOON:003:1,2007-12-02T00:00:00Z,26.8015,-97.4706,0.0,9.2,168.0,10.5,'11111222,11111222,11111222' 
TCOON,ioos:station:TCOON:003:1,2007-12-02T01:00:00Z,26.8015,-97.4706,0.0,8.3,171.0,9.6,'11111222,11111222,11111222' 
TCOON,ioos:station:TCOON:003:1,2007-12-02T02:00:00Z,26.8015,-97.4706,0.0,9.6,160.0,10.8,'11111222,11111222,11111222' 
TCOON,ioos:station:TCOON:003:1,2007-12-02T03:00:00Z,26.8015,-97.4706,0.0,7.4,176.0,8.4,'11111222,11111222,11111222' 
TCOON,ioos:station:TCOON:003:1,2007-12-02T04:00:00Z,26.8015,-97.4706,0.0,7.3,179.0,8.9,'11111222,11111222,11111222' 
TCOON,ioos:station:TCOON:003:1,2007-12-02T05:00:00Z,26.8015,-97.4706,0.0,6.5,182.0,7.8,'11111222,11111222,11111222' 
TCOON,ioos:station:TCOON:003:1,2007-12-02T06:00:00Z,26.8015,-97.4706,0.0,7.3,177.0,8.9,'11111222,11111222,11111222' 
TCOON,ioos:station:TCOON:003:1,2007-12-02T07:00:00Z,26.8015,-97.4706,0.0,6.8,180.0,7.8,'11111222,11111222,11111222' 
TCOON,ioos:station:TCOON:003:1,2007-12-02T08:00:00Z,26.8015,-97.4706,0.0,5.3,174.0,6.1,'11111222,11111222,11111222' 
TCOON,ioos:station:TCOON:003:1,2007-12-02T09:00:00Z,26.8015,-97.4706,0.0,4.2,189.0,4.5,'11111222,11111222,11111222' 
TCOON,ioos:station:TCOON:003:1,2007-12-02T10:00:00Z,26.8015,-97.4706,0.0,4.2,174.0,4.9,'11111222,11111222,11111222' 
TCOON,ioos:station:TCOON:003:1,2007-12-02T11:00:00Z,26.8015,-97.4706,0.0,6.1,169.0,7.1,'11111222,11111222,11111222' 
TCOON,ioos:station:TCOON:003:1,2007-12-02T12:00:00Z,26.8015,-97.4706,0.0,6.2,175.0,6.8,'11111222,11111222,11111222' 
TCOON,ioos:station:TCOON:003:1,2007-12-02T13:00:00Z,26.8015,-97.4706,0.0,5.1,186.0,5.7,'11111222,11111222,11111222' 
TCOON,ioos:station:TCOON:003:1,2007-12-02T14:00:00Z,26.8015,-97.4706,0.0,6.9,168.0,8.0,'11111222,11111222,11111222' 
TCOON,ioos:station:TCOON:003:1,2007-12-02T15:00:00Z,26.8015,-97.4706,0.0,5.3,175.0,6.1,'11111222,11111222,11111222' 
TCOON,ioos:station:TCOON:003:1,2007-12-02T16:00:00Z,26.8015,-97.4706,0.0,6.9,158.0,8.2,'11111222,11111222,11111222' 
TCOON,ioos:station:TCOON:003:1,2007-12-02T17:00:00Z,26.8015,-97.4706,0.0,5.9,167.0,6.8,'11111222,11111222,11111222' 
TCOON,ioos:station:TCOON:003:1,2007-12-02T18:00:00Z,26.8015,-97.4706,0.0,7.4,162.0,8.5,'11111222,11111222,11111222' 
TCOON,ioos:station:TCOON:003:1,2007-12-02T19:00:00Z,26.8015,-97.4706,0.0,7.4,160.0,9.5,'11111222,11111222,11111222' 
TCOON,ioos:station:TCOON:003:1,2007-12-02T20:00:00Z,26.8015,-97.4706,0.0,6.8,162.0,7.8,'11111222,11111222,11111222' 
TCOON,ioos:station:TCOON:003:1,2007-12-02T21:00:00Z,26.8015,-97.4706,0.0,7.2,152.0,8.1,'11111222,11111222,11111222' 
TCOON,ioos:station:TCOON:003:1,2007-12-02T22:00:00Z,26.8015,-97.4706,0.0,7.8,148.0,9.1,'11111222,11111222,11111222' 
TCOON,ioos:station:TCOON:003:1,2007-12-02T23:00:00Z,26.8015,-97.4706,0.0,7.0,155.0,8.4,'11111222,11111222,11111222' 
TCOON,ioos:station:TCOON:003:1,2007-12-03T00:00:00Z,26.8015,-97.4706,0.0,3.3,183.0,3.8,'11111222,11111222,11111222' 
TCOON,ioos:station:TCOON:003:1,2007-12-03T01:00:00Z,26.8015,-97.4706,0.0,2.1,196.0,2.3,'11111222,11111222,11111222' 
TCOON,ioos:station:TCOON:003:1,2007-12-03T02:00:00Z,26.8015,-97.4706,0.0,0.9,93.0,1.0,'11111222,11111222,11111222' 
TCOON,ioos:station:TCOON:003:1,2007-12-03T03:00:00Z,26.8015,-97.4706,0.0,1.5,115.0,1.7,'11111222,11111222,11111222' 
TCOON,ioos:station:TCOON:003:1,2007-12-03T04:00:00Z,26.8015,-97.4706,0.0,2.6,66.0,3.1,'11111222,11111222,11111222' 
TCOON,ioos:station:TCOON:003:1,2007-12-03T05:00:00Z,26.8015,-97.4706,0.0,4.0,350.0,4.6,'11111222,11111222,11111222' 
TCOON,ioos:station:TCOON:003:1,2007-12-03T06:00:00Z,26.8015,-97.4706,0.0,7.8,340.0,8.9,'11111222,11111222,11111222' 
TCOON,ioos:station:TCOON:003:1,2007-12-03T07:00:00Z,26.8015,-97.4706,0.0,11.9,31.0,15.2,'11111222,11111222,11111222' 
TCOON,ioos:station:TCOON:003:1,2007-12-03T08:00:00Z,26.8015,-97.4706,0.0,12.2,26.0,14.7,'11111222,11111222,11111222' 
TCOON,ioos:station:TCOON:003:1,2007-12-03T09:00:00Z,26.8015,-97.4706,0.0,8.8,22.0,10.7,'11111222,11111222,11111222' 
TCOON,ioos:station:TCOON:003:1,2007-12-03T10:00:00Z,26.8015,-97.4706,0.0,8.5,19.0,10.0,'11111222,11111222,11111222' 
TCOON,ioos:station:TCOON:003:1,2007-12-03T11:00:00Z,26.8015,-97.4706,0.0,10.9,18.0,12.9,'11111222,11111222,11111222' 
TCOON,ioos:station:TCOON:003:1,2007-12-03T12:00:00Z,26.8015,-97.4706,0.0,8.9,5.0,10.4,'11111222,11111222,11111222' 
TCOON,ioos:station:TCOON:003:1,2007-12-03T13:00:00Z,26.8015,-97.4706,0.0,10.4,5.0,12.7,'11111222,11111222,11111222' 
TCOON,ioos:station:TCOON:003:1,2007-12-03T14:00:00Z,26.8015,-97.4706,0.0,10.4,2.0,11.8,'11111222,11111222,11111222' 
TCOON,ioos:station:TCOON:003:1,2007-12-03T15:00:00Z,26.8015,-97.4706,0.0,10.1,9.0,11.8,'11111222,11111222,11111222' 
TCOON,ioos:station:TCOON:003:1,2007-12-03T16:00:00Z,26.8015,-97.4706,0.0,9.7,7.0,12.0,'11111222,11111222,11111222' 
TCOON,ioos:station:TCOON:003:1,2007-12-03T17:00:00Z,26.8015,-97.4706,0.0,8.1,19.0,9.6,'11111222,11111222,11111222' 
TCOON,ioos:station:TCOON:003:1,2007-12-03T18:00:00Z,26.8015,-97.4706,0.0,7.5,7.0,8.6,'11111222,11111222,11111222' 
TCOON,ioos:station:TCOON:003:1,2007-12-03T19:00:00Z,26.8015,-97.4706,0.0,7.6,2.0,8.9,'11111222,11111222,11111222' 
TCOON,ioos:station:TCOON:003:1,2007-12-03T20:00:00Z,26.8015,-97.4706,0.0,8.0,12.0,9.3,'11111222,11111222,11111222' 
TCOON,ioos:station:TCOON:003:1,2007-12-03T21:00:00Z,26.8015,-97.4706,0.0,7.2,14.0,8.6,'11111222,11111222,11111222' 
TCOON,ioos:station:TCOON:003:1,2007-12-03T22:00:00Z,26.8015,-97.4706,0.0,7.1,11.0,7.9,'11111222,11111222,11111222' 
TCOON,ioos:station:TCOON:003:1,2007-12-03T23:00:00Z,26.8015,-97.4706,0.0,4.6,21.0,5.2,'11111222,11111222,11111222' 
TCOON,ioos:station:TCOON:003:1,2007-12-04T00:00:00Z,26.8015,-97.4706,0.0,4.0,17.0,4.8,'11111222,11111222,11111222' 
TCOON,ioos:station:TCOON:003:1,2007-12-04T01:00:00Z,26.8015,-97.4706,0.0,4.5,17.0,5.0,'11111222,11111222,11111222' 
TCOON,ioos:station:TCOON:003:1,2007-12-04T02:00:00Z,26.8015,-97.4706,0.0,4.8,9.0,5.8,'11111222,11111222,11111222' 
TCOON,ioos:station:TCOON:003:1,2007-12-04T03:00:00Z,26.8015,-97.4706,0.0,4.7,5.0,5.3,'11111222,11111222,11111222' 
TCOON,ioos:station:TCOON:003:1,2007-12-04T04:00:00Z,26.8015,-97.4706,0.0,4.7,3.0,5.5,'11111222,11111222,11111222' 
TCOON,ioos:station:TCOON:003:1,2007-12-04T05:00:00Z,26.8015,-97.4706,0.0,4.4,353.0,5.7,'11111222,11111222,11111222' 
TCOON,ioos:station:TCOON:003:1,2007-12-04T06:00:00Z,26.8015,-97.4706,0.0,4.8,357.0,5.7,'11111222,11111222,11111222' 
TCOON,ioos:station:TCOON:003:1,2007-12-04T07:00:00Z,26.8015,-97.4706,0.0,4.7,351.0,6.0,'11111222,11111222,11111222' 
TCOON,ioos:station:TCOON:003:1,2007-12-04T08:00:00Z,26.8015,-97.4706,0.0,2.9,330.0,3.5,'11111222,11111222,11111222' 
TCOON,ioos:station:TCOON:003:1,2007-12-04T09:00:00Z,26.8015,-97.4706,0.0,3.6,320.0,4.2,'11111222,11111222,11111222' 
TCOON,ioos:station:TCOON:003:1,2007-12-04T10:00:00Z,26.8015,-97.4706,0.0,4.5,331.0,5.2,'11111222,11111222,11111222' 
TCOON,ioos:station:TCOON:003:1,2007-12-04T11:00:00Z,26.8015,-97.4706,0.0,3.6,331.0,4.5,'11111222,11111222,11111222' 
TCOON,ioos:station:TCOON:003:1,2007-12-04T12:00:00Z,26.8015,-97.4706,0.0,3.8,322.0,4.1,'11111222,11111222,11111222' 
TCOON,ioos:station:TCOON:003:1,2007-12-04T13:00:00Z,26.8015,-97.4706,0.0,3.7,322.0,4.5,'11111222,11111222,11111222' 
TCOON,ioos:station:TCOON:003:1,2007-12-04T14:00:00Z,26.8015,-97.4706,0.0,3.2,332.0,3.6,'11111222,11111222,11111222' 
TCOON,ioos:station:TCOON:003:1,2007-12-04T15:00:00Z,26.8015,-97.4706,0.0,2.4,331.0,2.9,'11111222,11111222,11111222' 
TCOON,ioos:station:TCOON:003:1,2007-12-04T16:00:00Z,26.8015,-97.4706,0.0,1.3,13.0,1.6,'11111222,11111222,11111222' 
TCOON,ioos:station:TCOON:003:1,2007-12-04T17:00:00Z,26.8015,-97.4706,0.0,1.5,125.0,1.7,'11111222,11111222,11111222' 
TCOON,ioos:station:TCOON:003:1,2007-12-04T18:00:00Z,26.8015,-97.4706,0.0,0.2,22.0,0.6,'11111222,11111222,11111222' 
TCOON,ioos:station:TCOON:003:1,2007-12-04T19:00:00Z,26.8015,-97.4706,0.0,1.2,23.0,1.8,'11111222,11111222,11111222' 
TCOON,ioos:station:TCOON:003:1,2007-12-04T20:00:00Z,26.8015,-97.4706,0.0,3.8,96.0,5.0,'11111222,11111222,11111222' 
TCOON,ioos:station:TCOON:003:1,2007-12-04T21:00:00Z,26.8015,-97.4706,0.0,4.3,112.0,4.9,'11111222,11111222,11111222' 
TCOON,ioos:station:TCOON:003:1,2007-12-04T22:00:00Z,26.8015,-97.4706,0.0,4.6,119.0,5.5,'11111222,11111222,11111222' 
TCOON,ioos:station:TCOON:003:1,2007-12-04T23:00:00Z,26.8015,-97.4706,0.0,4.3,135.0,4.9,'11111222,11111222,11111222' 
TCOON,ioos:station:TCOON:003:1,2007-12-05T00:00:00Z,26.8015,-97.4706,0.0,4.8,151.0,5.5,'11111222,11111222,11111222' 
TCOON,ioos:station:TCOON:003:1,2007-12-05T01:00:00Z,26.8015,-97.4706,0.0,3.6,150.0,4.2,'11111222,11111222,11111222' 
TCOON,ioos:station:TCOON:003:1,2007-12-05T02:00:00Z,26.8015,-97.4706,0.0,3.5,162.0,4.3,'11111222,11111222,11111222' 
TCOON,ioos:station:TCOON:003:1,2007-12-05T03:00:00Z,26.8015,-97.4706,0.0,5.7,176.0,6.5,'11111222,11111222,11111222' 
TCOON,ioos:station:TCOON:003:1,2007-12-05T04:00:00Z,26.8015,-97.4706,0.0,3.7,207.0,4.4,'11111222,11111222,11111222' 
TCOON,ioos:station:TCOON:003:1,2007-12-05T05:00:00Z,26.8015,-97.4706,0.0,4.5,202.0,5.2,'11111222,11111222,11111222' 
TCOON,ioos:station:TCOON:003:1,2007-12-05T06:00:00Z,26.8015,-97.4706,0.0,4.3,209.0,5.3,'11111222,11111222,11111222' 
TCOON,ioos:station:TCOON:003:1,2007-12-05T07:00:00Z,26.8015,-97.4706,0.0,4.3,206.0,4.9,'11111222,11111222,11111222' 
TCOON,ioos:station:TCOON:003:1,2007-12-05T08:00:00Z,26.8015,-97.4706,0.0,3.7,208.0,4.4,'11111222,11111222,11111222' 
TCOON,ioos:station:TCOON:003:1,2007-12-05T09:00:00Z,26.8015,-97.4706,0.0,3.1,213.0,3.8,'11111222,11111222,11111222' 
TCOON,ioos:station:TCOON:003:1,2007-12-05T13:00:00Z,26.8015,-97.4706,0.0,4.4,192.0,5.3,'11111222,11111222,11111222' 
TCOON,ioos:station:TCOON:003:1,2007-12-05T14:00:00Z,26.8015,-97.4706,0.0,3.5,190.0,4.0,'11111222,11111222,11111222' 
TCOON,ioos:station:TCOON:003:1,2007-12-05T15:00:00Z,26.8015,-97.4706,0.0,4.5,160.0,5.0,'11111222,11111222,11111222' 
TCOON,ioos:station:TCOON:003:1,2007-12-05T16:00:00Z,26.8015,-97.4706,0.0,5.1,156.0,5.8,'11111222,11111222,11111222' 
TCOON,ioos:station:TCOON:003:1,2007-12-05T17:00:00Z,26.8015,-97.4706,0.0,5.5,157.0,6.1,'11111222,11111222,11111222' 
TCOON,ioos:station:TCOON:003:1,2007-12-05T18:00:00Z,26.8015,-97.4706,0.0,5.4,161.0,6.3,'11111222,11111222,11111222' 
TCOON,ioos:station:TCOON:003:1,2007-12-05T19:00:00Z,26.8015,-97.4706,0.0,5.8,166.0,6.4,'11111222,11111222,11111222' 
TCOON,ioos:station:TCOON:003:1,2007-12-05T20:00:00Z,26.8015,-97.4706,0.0,6.8,151.0,8.4,'11111222,11111222,11111222' 
TCOON,ioos:station:TCOON:003:1,2007-12-05T21:00:00Z,26.8015,-97.4706,0.0,7.1,150.0,8.4,'11111222,11111222,11111222' 
TCOON,ioos:station:TCOON:003:1,2007-12-05T22:00:00Z,26.8015,-97.4706,0.0,6.7,147.0,7.7,'11111222,11111222,11111222' 
TCOON,ioos:station:TCOON:003:1,2007-12-05T23:00:00Z,26.8015,-97.4706,0.0,5.9,143.0,6.9,'11111222,11111222,11111222' 
TCOON,ioos:station:TCOON:003:1,2007-12-06T00:00:00Z,26.8015,-97.4706,0.0,5.5,144.0,6.5,'11111222,11111222,11111222' 
TCOON,ioos:station:TCOON:003:1,2007-12-06T01:00:00Z,26.8015,-97.4706,0.0,4.3,124.0,5.0,'11111222,11111222,11111222' 
TCOON,ioos:station:TCOON:003:1,2007-12-06T02:00:00Z,26.8015,-97.4706,0.0,4.1,132.0,4.7,'11111222,11111222,11111222' 
TCOON,ioos:station:TCOON:003:1,2007-12-06T03:00:00Z,26.8015,-97.4706,0.0,3.6,128.0,4.1,'11111222,11111222,11111222' 
TCOON,ioos:station:TCOON:003:1,2007-12-06T04:00:00Z,26.8015,-97.4706,0.0,3.2,133.0,3.7,'11111222,11111222,11111222' 
TCOON,ioos:station:TCOON:003:1,2007-12-06T05:00:00Z,26.8015,-97.4706,0.0,3.5,124.0,4.0,'11111222,11111222,11111222' 
TCOON,ioos:station:TCOON:003:1,2007-12-06T06:00:00Z,26.8015,-97.4706,0.0,3.8,135.0,4.2,'11111222,11111222,11111222' 
TCOON,ioos:station:TCOON:003:1,2007-12-06T07:00:00Z,26.8015,-97.4706,0.0,2.9,120.0,3.3,'11111222,11111222,11111222' 
TCOON,ioos:station:TCOON:003:1,2007-12-06T08:00:00Z,26.8015,-97.4706,0.0,2.9,105.0,3.1,'11111222,11111222,11111222' 
TCOON,ioos:station:TCOON:003:1,2007-12-06T09:00:00Z,26.8015,-97.4706,0.0,3.3,115.0,3.6,'11111222,11111222,11111222' 
TCOON,ioos:station:TCOON:003:1,2007-12-06T10:00:00Z,26.8015,-97.4706,0.0,3.5,112.0,4.0,'11111222,11111222,11111222' 
TCOON,ioos:station:TCOON:003:1,2007-12-06T11:00:00Z,26.8015,-97.4706,0.0,3.4,93.0,3.9,'11111222,11111222,11111222' 
TCOON,ioos:station:TCOON:003:1,2007-12-06T12:00:00Z,26.8015,-97.4706,0.0,3.6,102.0,4.1,'11111222,11111222,11111222' 
TCOON,ioos:station:TCOON:003:1,2007-12-06T13:00:00Z,26.8015,-97.4706,0.0,3.9,119.0,4.4,'11111222,11111222,11111222' 
TCOON,ioos:station:TCOON:003:1,2007-12-06T14:00:00Z,26.8015,-97.4706,0.0,4.7,137.0,5.6,'11111222,11111222,11111222' 
TCOON,ioos:station:TCOON:003:1,2007-12-06T15:00:00Z,26.8015,-97.4706,0.0,5.9,142.0,6.9,'11111222,11111222,11111222' 
TCOON,ioos:station:TCOON:003:1,2007-12-06T16:00:00Z,26.8015,-97.4706,0.0,5.5,148.0,6.6,'11111222,11111222,11111222' 
TCOON,ioos:station:TCOON:003:1,2007-12-06T17:00:00Z,26.8015,-97.4706,0.0,6.1,159.0,6.9,'11111222,11111222,11111222' 
TCOON,ioos:station:TCOON:003:1,2007-12-06T19:00:00Z,26.8015,-97.4706,0.0,7.7,161.0,9.1,'11111222,11111222,11111222' 
TCOON,ioos:station:TCOON:003:1,2007-12-06T20:00:00Z,26.8015,-97.4706,0.0,8.6,157.0,10.1,'11111222,11111222,11111222' 
TCOON,ioos:station:TCOON:003:1,2007-12-06T21:00:00Z,26.8015,-97.4706,0.0,7.6,157.0,9.3,'11111222,11111222,11111222' 
TCOON,ioos:station:TCOON:003:1,2007-12-06T22:00:00Z,26.8015,-97.4706,0.0,8.0,156.0,9.7,'11111222,11111222,11111222' 
TCOON,ioos:station:TCOON:003:1,2007-12-06T23:00:00Z,26.8015,-97.4706,0.0,8.0,156.0,9.3,'11111222,11111222,11111222' 
TCOON,ioos:station:TCOON:003:1,2007-12-07T00:00:00Z,26.8015,-97.4706,0.0,6.9,161.0,7.8,'11111222,11111222,11111222' 
TCOON,ioos:station:TCOON:003:1,2007-12-07T01:00:00Z,26.8015,-97.4706,0.0,7.3,173.0,8.2,'11111222,11111222,11111222' 
TCOON,ioos:station:TCOON:003:1,2007-12-07T02:00:00Z,26.8015,-97.4706,0.0,6.9,169.0,7.8,'11111222,11111222,11111222' 
TCOON,ioos:station:TCOON:003:1,2007-12-07T03:00:00Z,26.8015,-97.4706,0.0,6.4,170.0,7.8,'11111222,11111222,11111222' 
TCOON,ioos:station:TCOON:003:1,2007-12-07T04:00:00Z,26.8015,-97.4706,0.0,6.0,169.0,6.7,'11111222,11111222,11111222' 
TCOON,ioos:station:TCOON:003:1,2007-12-07T05:00:00Z,26.8015,-97.4706,0.0,4.2,175.0,4.9,'11111222,11111222,11111222' 
TCOON,ioos:station:TCOON:003:1,2007-12-07T06:00:00Z,26.8015,-97.4706,0.0,3.7,178.0,4.2,'11111222,11111222,11111222' 
TCOON,ioos:station:TCOON:003:1,2007-12-07T07:00:00Z,26.8015,-97.4706,0.0,4.2,172.0,4.7,'11111222,11111222,11111222' 
TCOON,ioos:station:TCOON:003:1,2007-12-07T08:00:00Z,26.8015,-97.4706,0.0,5.2,168.0,6.5,'11111222,11111222,11111222' 
TCOON,ioos:station:TCOON:003:1,2007-12-07T09:00:00Z,26.8015,-97.4706,0.0,4.0,167.0,4.6,'11111222,11111222,11111222' 
TCOON,ioos:station:TCOON:003:1,2007-12-07T10:00:00Z,26.8015,-97.4706,0.0,3.7,178.0,4.5,'11111222,11111222,11111222' 
TCOON,ioos:station:TCOON:003:1,2007-12-07T11:00:00Z,26.8015,-97.4706,0.0,4.9,174.0,5.5,'11111222,11111222,11111222' 
TCOON,ioos:station:TCOON:003:1,2007-12-07T12:00:00Z,26.8015,-97.4706,0.0,3.6,194.0,4.1,'11111222,11111222,11111222' 
TCOON,ioos:station:TCOON:003:1,2007-12-07T13:00:00Z,26.8015,-97.4706,0.0,4.0,188.0,4.9,'11111222,11111222,11111222' 
TCOON,ioos:station:TCOON:003:1,2007-12-07T14:00:00Z,26.8015,-97.4706,0.0,4.9,186.0,5.6,'11111222,11111222,11111222' 
TCOON,ioos:station:TCOON:003:1,2007-12-07T15:00:00Z,26.8015,-97.4706,0.0,5.7,179.0,6.9,'11111222,11111222,11111222' 
TCOON,ioos:station:TCOON:003:1,2007-12-07T16:00:00Z,26.8015,-97.4706,0.0,6.8,170.0,8.1,'11111222,11111222,11111222' 
TCOON,ioos:station:TCOON:003:1,2007-12-07T17:00:00Z,26.8015,-97.4706,0.0,8.1,167.0,9.6,'11111222,11111222,11111222' 
TCOON,ioos:station:TCOON:003:1,2007-12-07T18:00:00Z,26.8015,-97.4706,0.0,8.6,167.0,10.2,'11111222,11111222,11111222' 
TCOON,ioos:station:TCOON:003:1,2007-12-07T19:00:00Z,26.8015,-97.4706,0.0,9.5,166.0,10.9,'11111222,11111222,11111222' 
TCOON,ioos:station:TCOON:003:1,2007-12-07T20:00:00Z,26.8015,-97.4706,0.0,9.4,166.0,11.1,'11111222,11111222,11111222' 
TCOON,ioos:station:TCOON:003:1,2007-12-07T21:00:00Z,26.8015,-97.4706,0.0,9.2,153.0,10.9,'11111222,11111222,11111222' 
TCOON,ioos:station:TCOON:003:1,2007-12-07T22:00:00Z,26.8015,-97.4706,0.0,9.7,147.0,11.4,'11111222,11111222,11111222' 
TCOON,ioos:station:TCOON:003:1,2007-12-07T23:00:00Z,26.8015,-97.4706,0.0,8.9,149.0,10.5,'11111222,11111222,11111222' 
TCOON,ioos:station:TCOON:003:1,2007-12-08T00:00:00Z,26.8015,-97.4706,0.0,8.8,151.0,10.4,'11111222,11111222,11111222' 
TCOON,ioos:station:TCOON:003:1,2007-12-08T01:00:00Z,26.8015,-97.4706,0.0,7.3,154.0,8.6,'11111222,11111222,11111222' 
TCOON,ioos:station:TCOON:003:1,2007-12-08T02:00:00Z,26.8015,-97.4706,0.0,7.4,159.0,8.7,'11111222,11111222,11111222' 
TCOON,ioos:station:TCOON:003:1,2007-12-08T03:00:00Z,26.8015,-97.4706,0.0,8.1,166.0,9.6,'11111222,11111222,11111222' 
TCOON,ioos:station:TCOON:003:1,2007-12-08T04:00:00Z,26.8015,-97.4706,0.0,6.8,172.0,8.1,'11111222,11111222,11111222' 
TCOON,ioos:station:TCOON:003:1,2007-12-08T05:00:00Z,26.8015,-97.4706,0.0,7.5,175.0,8.4,'11111222,11111222,11111222' 
TCOON,ioos:station:TCOON:003:1,2007-12-08T06:00:00Z,26.8015,-97.4706,0.0,9.0,175.0,10.1,'11111222,11111222,11111222' 
TCOON,ioos:station:TCOON:003:1,2007-12-08T07:00:00Z,26.8015,-97.4706,0.0,9.2,176.0,11.2,'11111222,11111222,11111222' 
TCOON,ioos:station:TCOON:003:1,2007-12-08T08:00:00Z,26.8015,-97.4706,0.0,8.1,177.0,9.3,'11111222,11111222,11111222' 
TCOON,ioos:station:TCOON:003:1,2007-12-08T09:00:00Z,26.8015,-97.4706,0.0,8.5,180.0,9.9,'11111222,11111222,11111222' 
TCOON,ioos:station:TCOON:003:1,2007-12-08T10:00:00Z,26.8015,-97.4706,0.0,6.1,179.0,7.2,'11111222,11111222,11111222' 
TCOON,ioos:station:TCOON:003:1,2007-12-08T11:00:00Z,26.8015,-97.4706,0.0,7.1,179.0,8.4,'11111222,11111222,11111222' 
TCOON,ioos:station:TCOON:003:1,2007-12-08T12:00:00Z,26.8015,-97.4706,0.0,4.1,180.0,4.9,'11111222,11111222,11111222' 
TCOON,ioos:station:TCOON:003:1,2007-12-08T13:00:00Z,26.8015,-97.4706,0.0,6.1,162.0,6.8,'11111222,11111222,11111222' 
TCOON,ioos:station:TCOON:003:1,2007-12-08T14:00:00Z,26.8015,-97.4706,0.0,6.3,174.0,7.1,'11111222,11111222,11111222' 
TCOON,ioos:station:TCOON:003:1,2007-12-08T15:00:00Z,26.8015,-97.4706,0.0,8.0,165.0,9.1,'11111222,11111222,11111222' 
TCOON,ioos:station:TCOON:003:1,2007-12-08T16:00:00Z,26.8015,-97.4706,0.0,7.9,173.0,8.9,'11111222,11111222,11111222' 
TCOON,ioos:station:TCOON:003:1,2007-12-08T17:00:00Z,26.8015,-97.4706,0.0,9.2,163.0,10.8,'11111222,11111222,11111222' 
TCOON,ioos:station:TCOON:003:1,2007-12-08T18:00:00Z,26.8015,-97.4706,0.0,8.6,157.0,10.3,'11111222,11111222,11111222' 
TCOON,ioos:station:TCOON:003:1,2007-12-08T19:00:00Z,26.8015,-97.4706,0.0,10.0,151.0,12.1,'11111222,11111222,11111222' 
TCOON,ioos:station:TCOON:003:1,2007-12-08T20:00:00Z,26.8015,-97.4706,0.0,11.0,152.0,13.0,'11111222,11111222,11111222' 
TCOON,ioos:station:TCOON:003:1,2007-12-08T21:00:00Z,26.8015,-97.4706,0.0,9.8,151.0,12.5,'11111222,11111222,11111222' 
TCOON,ioos:station:TCOON:003:1,2007-12-08T22:00:00Z,26.8015,-97.4706,0.0,10.3,151.0,12.7,'11111222,11111222,11111222' 
TCOON,ioos:station:TCOON:003:1,2007-12-08T23:00:00Z,26.8015,-97.4706,0.0,10.3,147.0,11.7,'11111222,11111222,11111222' 
TCOON,ioos:station:TCOON:003:1,2007-12-09T00:00:00Z,26.8015,-97.4706,0.0,9.2,151.0,11.0,'11111222,11111222,11111222' 
TCOON,ioos:station:TCOON:003:1,2007-12-09T01:00:00Z,26.8015,-97.4706,0.0,10.0,156.0,11.8,'11111222,11111222,11111222' 
TCOON,ioos:station:TCOON:003:1,2007-12-09T02:00:00Z,26.8015,-97.4706,0.0,9.5,160.0,11.5,'11111222,11111222,11111222' 
TCOON,ioos:station:TCOON:003:1,2007-12-09T03:00:00Z,26.8015,-97.4706,0.0,9.3,163.0,10.9,'11111222,11111222,11111222' 
TCOON,ioos:station:TCOON:003:1,2007-12-09T04:00:00Z,26.8015,-97.4706,0.0,9.5,167.0,12.0,'11111222,11111222,11111222' 
TCOON,ioos:station:TCOON:003:1,2007-12-09T05:00:00Z,26.8015,-97.4706,0.0,10.3,163.0,11.6,'11111222,11111222,11111222' 
TCOON,ioos:station:TCOON:003:1,2007-12-09T06:00:00Z,26.8015,-97.4706,0.0,8.7,164.0,10.5,'11111222,11111222,11111222' 
TCOON,ioos:station:TCOON:003:1,2007-12-09T07:00:00Z,26.8015,-97.4706,0.0,8.9,160.0,10.2,'11111222,11111222,11111222' 
TCOON,ioos:station:TCOON:003:1,2007-12-09T08:00:00Z,26.8015,-97.4706,0.0,8.6,154.0,9.9,'11111222,11111222,11111222' 
TCOON,ioos:station:TCOON:003:1,2007-12-09T09:00:00Z,26.8015,-97.4706,0.0,9.0,155.0,10.8,'11111222,11111222,11111222' 
TCOON,ioos:station:TCOON:003:1,2007-12-09T10:00:00Z,26.8015,-97.4706,0.0,8.4,151.0,10.4,'11111222,11111222,11111222' 
TCOON,ioos:station:TCOON:003:1,2007-12-09T11:00:00Z,26.8015,-97.4706,0.0,7.1,148.0,8.9,'11111222,11111222,11111222' 
TCOON,ioos:station:TCOON:003:1,2007-12-09T12:00:00Z,26.8015,-97.4706,0.0,8.3,149.0,10.0,'11111222,11111222,11111222' 
TCOON,ioos:station:TCOON:003:1,2007-12-09T13:00:00Z,26.8015,-97.4706,0.0,7.1,147.0,8.4,'11111222,11111222,11111222' 
TCOON,ioos:station:TCOON:003:1,2007-12-09T14:00:00Z,26.8015,-97.4706,0.0,8.1,147.0,9.3,'11111222,11111222,11111222' 
TCOON,ioos:station:TCOON:003:1,2007-12-09T15:00:00Z,26.8015,-97.4706,0.0,9.5,153.0,11.3,'11111222,11111222,11111222' 